User: anonymous   Login
Location: Bieujac
(44.5398°N, 0.1549°W)
Time: 22:24:42
(UTC+00:00)
Language:

Cosmos 1437 - Orbit

View from above orbital plane
View from above orbital plane
View from above satellite
View from above satellite

Ground track
Ground track

The orbit data is extracted from the following two-line orbital elements,

1 13770U 83003A   20027.09101693  .00005542  00000-0  61862-4 0  9995
2 13770  81.1569  47.1159 0004698  92.2346 267.9446 15.62520297 34958
Epoch (UTC): 27 January 2020 02:11:03
Eccentricity: 0.0004698
inclination: 81.1569°
perigee height: 377 km
apogee height: 383 km
right ascension of ascending node: 47.1159°
argument of perigee: 92.2346°
revolutions per day: 15.62520297
mean anomaly at epoch: 267.9446°
orbit number at epoch: 3495

The dashed part of the orbit path shows where the satellite is in the earth's shadow,  

DLR